User: anonymous   Login
Location: Thompson
(55.7500°N, 97.8670°W)
Time: 01:45:22
(UTC-05:00)
Language:

Cosmos 1833 Rocket - Orbit

View from above orbital plane
View from above orbital plane
View from above satellite
View from above satellite

Ground track
Ground track

The orbit data is extracted from the following two-line orbital elements,

1 17590U 87027B   16209.27349392  .00000216  00000-0  13200-3 0  9991
2 17590  71.0038 114.1533 0002984  70.7698 289.3748 14.16728151518103
Epoch (UTC): 27 July 2016 06:33:49
Eccentricity: 0.0002984
inclination: 71.0038°
perigee height: 834 km
apogee height: 838 km
right ascension of ascending node: 114.1533°
argument of perigee: 70.7698°
revolutions per day: 14.16728151
mean anomaly at epoch: 289.3748°
orbit number at epoch: 51810

The dashed part of the orbit path shows where the satellite is in the earth's shadow,  

DLR